owner,sensor,date,latitude,longitude,vertical_datum,wind_speed,wind_to_direction,wind_speed_of_gust,qcFlag 
TCOON,ioos:station:TCOON:524:1,2016-09-01T00:00:00Z,29.8672,-93.9310,0.0,99.0,-9999.0,99.0,'11144222,99999999,11144222' 
TCOON,ioos:station:TCOON:524:1,2016-09-01T00:06:00Z,29.8672,-93.9310,0.0,99.0,-9999.0,99.0,'11144222,99999999,11144222' 
TCOON,ioos:station:TCOON:524:1,2016-09-01T00:12:00Z,29.8672,-93.9310,0.0,99.0,-9999.0,99.0,'11144222,99999999,11144222' 
TCOON,ioos:station:TCOON:524:1,2016-09-01T00:18:00Z,29.8672,-93.9310,0.0,1.5,44.0,3.1,'1111122,1111122,1111122' 
TCOON,ioos:station:TCOON:524:1,2016-09-01T00:24:00Z,29.8672,-93.9310,0.0,2.3,33.0,2.8,'11111222,11111222,11111222' 
TCOON,ioos:station:TCOON:524:1,2016-09-01T00:30:00Z,29.8672,-93.9310,0.0,3.1,9.0,3.8,'11111222,11111222,11111222' 
TCOON,ioos:station:TCOON:524:1,2016-09-01T00:36:00Z,29.8672,-93.9310,0.0,3.6,10.0,4.8,'11111222,11111222,11111222' 
TCOON,ioos:station:TCOON:524:1,2016-09-01T00:42:00Z,29.8672,-93.9310,0.0,3.5,9.0,4.3,'11111222,11111222,11111222' 
TCOON,ioos:station:TCOON:524:1,2016-09-01T00:48:00Z,29.8672,-93.9310,0.0,3.6,10.0,4.4,'11111222,11111222,11111222' 
TCOON,ioos:station:TCOON:524:1,2016-09-01T00:54:00Z,29.8672,-93.9310,0.0,99.0,-9999.0,99.0,'11144222,99999999,11144222' 
TCOON,ioos:station:TCOON:524:1,2016-09-01T01:00:00Z,29.8672,-93.9310,0.0,99.0,-9999.0,99.0,'11144222,99999999,11144222' 
TCOON,ioos:station:TCOON:524:1,2016-09-01T01:06:00Z,29.8672,-93.9310,0.0,2.3,26.0,3.7,'11111222,11111222,11111222' 
TCOON,ioos:station:TCOON:524:1,2016-09-01T01:12:00Z,29.8672,-93.9310,0.0,2.4,16.0,2.9,'11111222,11111222,11111222' 
TCOON,ioos:station:TCOON:524:1,2016-09-01T01:18:00Z,29.8672,-93.9310,0.0,2.4,16.0,2.9,'1111122,1111122,1111122' 
TCOON,ioos:station:TCOON:524:1,2016-09-01T01:24:00Z,29.8672,-93.9310,0.0,1.8,19.0,2.3,'11111222,11111222,11111222' 
TCOON,ioos:station:TCOON:524:1,2016-09-01T01:30:00Z,29.8672,-93.9310,0.0,1.9,29.0,2.4,'11111222,11111222,11111222' 
TCOON,ioos:station:TCOON:524:1,2016-09-01T01:36:00Z,29.8672,-93.9310,0.0,99.0,-9999.0,99.0,'11144222,99999999,11144222' 
TCOON,ioos:station:TCOON:524:1,2016-09-01T01:42:00Z,29.8672,-93.9310,0.0,99.0,-9999.0,99.0,'11144222,99999999,11144222' 
TCOON,ioos:station:TCOON:524:1,2016-09-01T01:48:00Z,29.8672,-93.9310,0.0,99.0,-9999.0,99.0,'11144222,99999999,11144222' 
TCOON,ioos:station:TCOON:524:1,2016-09-01T01:54:00Z,29.8672,-93.9310,0.0,99.0,-9999.0,99.0,'11144222,99999999,11144222' 
TCOON,ioos:station:TCOON:524:1,2016-09-01T02:00:00Z,29.8672,-93.9310,0.0,99.0,-9999.0,99.0,'11144222,99999999,11144222' 
TCOON,ioos:station:TCOON:524:1,2016-09-01T02:06:00Z,29.8672,-93.9310,0.0,99.0,-9999.0,99.0,'11144222,99999999,11144222' 
TCOON,ioos:station:TCOON:524:1,2016-09-01T02:12:00Z,29.8672,-93.9310,0.0,99.0,-9999.0,99.0,'11144222,99999999,11144222' 
TCOON,ioos:station:TCOON:524:1,2016-09-01T02:18:00Z,29.8672,-93.9310,0.0,2.1,16.0,2.6,'1111122,1111122,1111122' 
TCOON,ioos:station:TCOON:524:1,2016-09-01T02:24:00Z,29.8672,-93.9310,0.0,1.7,32.0,2.5,'11111222,11111222,11111222' 
TCOON,ioos:station:TCOON:524:1,2016-09-01T02:30:00Z,29.8672,-93.9310,0.0,1.6,35.0,2.5,'11111222,11111222,11111222' 
TCOON,ioos:station:TCOON:524:1,2016-09-01T02:36:00Z,29.8672,-93.9310,0.0,1.8,31.0,2.7,'11111222,11111222,11111222' 
TCOON,ioos:station:TCOON:524:1,2016-09-01T02:42:00Z,29.8672,-93.9310,0.0,1.8,24.0,2.7,'11111222,11111222,11111222' 
TCOON,ioos:station:TCOON:524:1,2016-09-01T02:48:00Z,29.8672,-93.9310,0.0,2.4,11.0,2.7,'11111222,11111222,11111222' 
TCOON,ioos:station:TCOON:524:1,2016-09-01T02:54:00Z,29.8672,-93.9310,0.0,2.3,9.0,2.8,'11111222,11111222,11111222' 
TCOON,ioos:station:TCOON:524:1,2016-09-01T03:00:00Z,29.8672,-93.9310,0.0,2.0,22.0,2.6,'11111222,11111222,11111222' 
TCOON,ioos:station:TCOON:524:1,2016-09-01T03:06:00Z,29.8672,-93.9310,0.0,1.9,23.0,2.3,'11111222,11111222,11111222' 
TCOON,ioos:station:TCOON:524:1,2016-09-01T03:12:00Z,29.8672,-93.9310,0.0,1.7,24.0,2.5,'11111222,11111222,11111222' 
TCOON,ioos:station:TCOON:524:1,2016-09-01T03:18:00Z,29.8672,-93.9310,0.0,1.7,24.0,2.5,'1111122,1111122,1111122' 
TCOON,ioos:station:TCOON:524:1,2016-09-01T03:24:00Z,29.8672,-93.9310,0.0,1.9,21.0,2.8,'11111222,11111222,11111222' 
TCOON,ioos:station:TCOON:524:1,2016-09-01T03:30:00Z,29.8672,-93.9310,0.0,1.9,26.0,2.4,'11111222,11111222,11111222' 
TCOON,ioos:station:TCOON:524:1,2016-09-01T03:36:00Z,29.8672,-93.9310,0.0,2.2,13.0,2.5,'11111222,11111222,11111222' 
TCOON,ioos:station:TCOON:524:1,2016-09-01T03:42:00Z,29.8672,-93.9310,0.0,2.1,10.0,2.6,'11111222,11111222,11111222' 
TCOON,ioos:station:TCOON:524:1,2016-09-01T03:48:00Z,29.8672,-93.9310,0.0,2.2,9.0,2.4,'11111222,11111222,11111222' 
TCOON,ioos:station:TCOON:524:1,2016-09-01T03:54:00Z,29.8672,-93.9310,0.0,2.2,12.0,2.6,'11111222,11111222,11111222' 
TCOON,ioos:station:TCOON:524:1,2016-09-01T04:00:00Z,29.8672,-93.9310,0.0,2.4,9.0,2.6,'11111222,11111222,11111222' 
TCOON,ioos:station:TCOON:524:1,2016-09-01T04:06:00Z,29.8672,-93.9310,0.0,2.4,12.0,3.0,'11111222,11111222,11111222' 
TCOON,ioos:station:TCOON:524:1,2016-09-01T04:12:00Z,29.8672,-93.9310,0.0,1.9,9.0,2.4,'11111222,11111222,11111222' 
TCOON,ioos:station:TCOON:524:1,2016-09-01T04:18:00Z,29.8672,-93.9310,0.0,1.9,9.0,2.4,'1111122,1111122,1111122' 
TCOON,ioos:station:TCOON:524:1,2016-09-01T04:24:00Z,29.8672,-93.9310,0.0,2.0,10.0,2.4,'11111222,11111222,11111222' 
TCOON,ioos:station:TCOON:524:1,2016-09-01T04:30:00Z,29.8672,-93.9310,0.0,2.3,5.0,2.7,'11111222,11111222,11111222' 
TCOON,ioos:station:TCOON:524:1,2016-09-01T04:36:00Z,29.8672,-93.9310,0.0,1.7,3.0,2.5,'11111222,11111222,11111222' 
TCOON,ioos:station:TCOON:524:1,2016-09-01T04:42:00Z,29.8672,-93.9310,0.0,1.7,0.0,2.4,'11111222,11111222,11111222' 
TCOON,ioos:station:TCOON:524:1,2016-09-01T04:48:00Z,29.8672,-93.9310,0.0,1.8,360.0,2.4,'11111222,11144222,11111222' 
TCOON,ioos:station:TCOON:524:1,2016-09-01T04:54:00Z,29.8672,-93.9310,0.0,1.9,352.0,2.5,'11111222,11111222,11111222' 
TCOON,ioos:station:TCOON:524:1,2016-09-01T05:00:00Z,29.8672,-93.9310,0.0,2.2,347.0,2.7,'11111222,11111222,11111222' 
TCOON,ioos:station:TCOON:524:1,2016-09-01T05:06:00Z,29.8672,-93.9310,0.0,1.8,348.0,2.5,'11111222,11111222,11111222' 
TCOON,ioos:station:TCOON:524:1,2016-09-01T05:12:00Z,29.8672,-93.9310,0.0,1.7,346.0,2.3,'11111222,11111222,11111222' 
TCOON,ioos:station:TCOON:524:1,2016-09-01T05:18:00Z,29.8672,-93.9310,0.0,1.7,346.0,2.3,'1111122,1111122,1111122' 
TCOON,ioos:station:TCOON:524:1,2016-09-01T05:24:00Z,29.8672,-93.9310,0.0,2.2,349.0,2.8,'11111222,11111222,11111222' 
TCOON,ioos:station:TCOON:524:1,2016-09-01T05:30:00Z,29.8672,-93.9310,0.0,2.5,355.0,2.9,'11111222,11111222,11111222' 
TCOON,ioos:station:TCOON:524:1,2016-09-01T05:36:00Z,29.8672,-93.9310,0.0,1.9,353.0,2.8,'11111222,11111222,11111222' 
TCOON,ioos:station:TCOON:524:1,2016-09-01T05:42:00Z,29.8672,-93.9310,0.0,2.1,353.0,2.8,'11111222,11111222,11111222' 
TCOON,ioos:station:TCOON:524:1,2016-09-01T05:48:00Z,29.8672,-93.9310,0.0,2.5,357.0,3.0,'11111222,11111222,11111222' 
TCOON,ioos:station:TCOON:524:1,2016-09-01T05:54:00Z,29.8672,-93.9310,0.0,2.4,6.0,2.9,'11111222,11111222,11111222' 
TCOON,ioos:station:TCOON:524:1,2016-09-01T06:00:00Z,29.8672,-93.9310,0.0,2.4,8.0,2.8,'11111222,11111222,11111222' 
TCOON,ioos:station:TCOON:524:1,2016-09-01T06:06:00Z,29.8672,-93.9310,0.0,3.0,5.0,3.4,'11111222,11111222,11111222' 
TCOON,ioos:station:TCOON:524:1,2016-09-01T06:12:00Z,29.8672,-93.9310,0.0,2.7,5.0,3.5,'11111222,11111222,11111222' 
TCOON,ioos:station:TCOON:524:1,2016-09-01T06:18:00Z,29.8672,-93.9310,0.0,2.7,5.0,3.5,'1111122,1111122,1111122' 
TCOON,ioos:station:TCOON:524:1,2016-09-01T06:24:00Z,29.8672,-93.9310,0.0,3.1,3.0,3.9,'11111222,11111222,11111222' 
TCOON,ioos:station:TCOON:524:1,2016-09-01T06:30:00Z,29.8672,-93.9310,0.0,2.8,5.0,3.4,'11111222,11111222,11111222' 
TCOON,ioos:station:TCOON:524:1,2016-09-01T06:36:00Z,29.8672,-93.9310,0.0,2.7,6.0,3.4,'11111222,11111222,11111222' 
TCOON,ioos:station:TCOON:524:1,2016-09-01T06:42:00Z,29.8672,-93.9310,0.0,2.4,5.0,3.2,'11111222,11111222,11111222' 
TCOON,ioos:station:TCOON:524:1,2016-09-01T06:48:00Z,29.8672,-93.9310,0.0,2.3,358.0,2.7,'11111222,11111222,11111222' 
TCOON,ioos:station:TCOON:524:1,2016-09-01T06:54:00Z,29.8672,-93.9310,0.0,2.1,354.0,2.8,'11111222,11111222,11111222' 
TCOON,ioos:station:TCOON:524:1,2016-09-01T07:00:00Z,29.8672,-93.9310,0.0,2.3,354.0,2.8,'11111222,11111222,11111222' 
TCOON,ioos:station:TCOON:524:1,2016-09-01T07:06:00Z,29.8672,-93.9310,0.0,2.6,358.0,3.3,'11111222,11111222,11111222' 
TCOON,ioos:station:TCOON:524:1,2016-09-01T07:12:00Z,29.8672,-93.9310,0.0,2.3,350.0,3.0,'11111222,11111222,11111222' 
TCOON,ioos:station:TCOON:524:1,2016-09-01T07:18:00Z,29.8672,-93.9310,0.0,2.3,350.0,3.0,'1111122,1111122,1111122' 
TCOON,ioos:station:TCOON:524:1,2016-09-01T07:24:00Z,29.8672,-93.9310,0.0,2.2,352.0,3.1,'11111222,11111222,11111222' 
TCOON,ioos:station:TCOON:524:1,2016-09-01T07:30:00Z,29.8672,-93.9310,0.0,2.8,354.0,3.4,'11111222,11111222,11111222' 
TCOON,ioos:station:TCOON:524:1,2016-09-01T07:36:00Z,29.8672,-93.9310,0.0,2.6,356.0,3.2,'11111222,11111222,11111222' 
TCOON,ioos:station:TCOON:524:1,2016-09-01T07:42:00Z,29.8672,-93.9310,0.0,1.9,356.0,3.2,'11111222,11111222,11111222' 
TCOON,ioos:station:TCOON:524:1,2016-09-01T07:48:00Z,29.8672,-93.9310,0.0,2.4,360.0,2.9,'11111222,11144222,11111222' 
TCOON,ioos:station:TCOON:524:1,2016-09-01T07:54:00Z,29.8672,-93.9310,0.0,2.2,353.0,2.9,'11111222,11111222,11111222' 
TCOON,ioos:station:TCOON:524:1,2016-09-01T08:00:00Z,29.8672,-93.9310,0.0,2.5,354.0,3.1,'11111222,11111222,11111222' 
TCOON,ioos:station:TCOON:524:1,2016-09-01T08:06:00Z,29.8672,-93.9310,0.0,2.5,353.0,3.3,'11111222,11111222,11111222' 
TCOON,ioos:station:TCOON:524:1,2016-09-01T08:12:00Z,29.8672,-93.9310,0.0,2.4,357.0,3.1,'11111222,11111222,11111222' 
TCOON,ioos:station:TCOON:524:1,2016-09-01T08:18:00Z,29.8672,-93.9310,0.0,2.4,357.0,3.1,'1111122,1111122,1111122' 
TCOON,ioos:station:TCOON:524:1,2016-09-01T08:24:00Z,29.8672,-93.9310,0.0,2.8,4.0,3.3,'11111222,11111222,11111222' 
TCOON,ioos:station:TCOON:524:1,2016-09-01T08:30:00Z,29.8672,-93.9310,0.0,2.2,358.0,3.0,'11111222,11111222,11111222' 
TCOON,ioos:station:TCOON:524:1,2016-09-01T08:36:00Z,29.8672,-93.9310,0.0,2.6,358.0,3.2,'11111222,11111222,11111222' 
TCOON,ioos:station:TCOON:524:1,2016-09-01T08:42:00Z,29.8672,-93.9310,0.0,3.1,355.0,3.5,'11111222,11111222,11111222' 
TCOON,ioos:station:TCOON:524:1,2016-09-01T08:48:00Z,29.8672,-93.9310,0.0,3.1,357.0,3.7,'11111222,11111222,11111222' 
TCOON,ioos:station:TCOON:524:1,2016-09-01T08:54:00Z,29.8672,-93.9310,0.0,3.3,1.0,3.9,'11111222,11111222,11111222' 
TCOON,ioos:station:TCOON:524:1,2016-09-01T09:00:00Z,29.8672,-93.9310,0.0,3.3,3.0,4.4,'11111222,11111222,11111222' 
TCOON,ioos:station:TCOON:524:1,2016-09-01T09:06:00Z,29.8672,-93.9310,0.0,3.3,4.0,4.2,'11111222,11111222,11111222' 
TCOON,ioos:station:TCOON:524:1,2016-09-01T09:12:00Z,29.8672,-93.9310,0.0,3.7,8.0,4.6,'11111222,11111222,11111222' 
TCOON,ioos:station:TCOON:524:1,2016-09-01T09:18:00Z,29.8672,-93.9310,0.0,3.7,8.0,4.6,'1111122,1111122,1111122' 
TCOON,ioos:station:TCOON:524:1,2016-09-01T09:24:00Z,29.8672,-93.9310,0.0,3.4,6.0,4.3,'11111222,11111222,11111222' 
TCOON,ioos:station:TCOON:524:1,2016-09-01T09:30:00Z,29.8672,-93.9310,0.0,3.3,7.0,4.6,'11111222,11111222,11111222' 
TCOON,ioos:station:TCOON:524:1,2016-09-01T09:36:00Z,29.8672,-93.9310,0.0,3.3,7.0,3.8,'11111222,11111222,11111222' 
TCOON,ioos:station:TCOON:524:1,2016-09-01T09:42:00Z,29.8672,-93.9310,0.0,3.0,5.0,3.9,'11111222,11111222,11111222' 
TCOON,ioos:station:TCOON:524:1,2016-09-01T09:48:00Z,29.8672,-93.9310,0.0,2.9,9.0,3.5,'11111222,11111222,11111222' 
TCOON,ioos:station:TCOON:524:1,2016-09-01T09:54:00Z,29.8672,-93.9310,0.0,2.8,9.0,3.4,'11111222,11111222,11111222' 
TCOON,ioos:station:TCOON:524:1,2016-09-01T10:00:00Z,29.8672,-93.9310,0.0,2.7,3.0,3.7,'11111222,11111222,11111222' 
TCOON,ioos:station:TCOON:524:1,2016-09-01T10:06:00Z,29.8672,-93.9310,0.0,2.9,4.0,3.5,'11111222,11111222,11111222' 
TCOON,ioos:station:TCOON:524:1,2016-09-01T10:12:00Z,29.8672,-93.9310,0.0,2.6,5.0,3.6,'11111222,11111222,11111222' 
TCOON,ioos:station:TCOON:524:1,2016-09-01T10:18:00Z,29.8672,-93.9310,0.0,2.6,5.0,3.6,'1111122,1111122,1111122' 
TCOON,ioos:station:TCOON:524:1,2016-09-01T10:24:00Z,29.8672,-93.9310,0.0,2.7,5.0,3.3,'11111222,11111222,11111222' 
TCOON,ioos:station:TCOON:524:1,2016-09-01T10:30:00Z,29.8672,-93.9310,0.0,2.8,7.0,3.4,'11111222,11111222,11111222' 
TCOON,ioos:station:TCOON:524:1,2016-09-01T10:36:00Z,29.8672,-93.9310,0.0,3.2,7.0,4.0,'11111222,11111222,11111222' 
TCOON,ioos:station:TCOON:524:1,2016-09-01T10:42:00Z,29.8672,-93.9310,0.0,3.5,14.0,4.3,'11111222,11111222,11111222' 
TCOON,ioos:station:TCOON:524:1,2016-09-01T10:48:00Z,29.8672,-93.9310,0.0,3.5,11.0,4.3,'11111222,11111222,11111222' 
TCOON,ioos:station:TCOON:524:1,2016-09-01T10:54:00Z,29.8672,-93.9310,0.0,3.8,14.0,4.7,'11111222,11111222,11111222' 
TCOON,ioos:station:TCOON:524:1,2016-09-01T11:00:00Z,29.8672,-93.9310,0.0,3.5,14.0,4.2,'11111222,11111222,11111222' 
TCOON,ioos:station:TCOON:524:1,2016-09-01T11:06:00Z,29.8672,-93.9310,0.0,3.7,14.0,4.6,'11111222,11111222,11111222' 
TCOON,ioos:station:TCOON:524:1,2016-09-01T11:12:00Z,29.8672,-93.9310,0.0,3.3,13.0,4.3,'11111222,11111222,11111222' 
TCOON,ioos:station:TCOON:524:1,2016-09-01T11:18:00Z,29.8672,-93.9310,0.0,3.3,13.0,4.3,'1111122,1111122,1111122' 
TCOON,ioos:station:TCOON:524:1,2016-09-01T11:24:00Z,29.8672,-93.9310,0.0,3.4,9.0,4.0,'11111222,11111222,11111222' 
TCOON,ioos:station:TCOON:524:1,2016-09-01T11:30:00Z,29.8672,-93.9310,0.0,3.0,8.0,4.0,'11111222,11111222,11111222' 
TCOON,ioos:station:TCOON:524:1,2016-09-01T11:36:00Z,29.8672,-93.9310,0.0,3.0,5.0,3.5,'11111222,11111222,11111222' 
TCOON,ioos:station:TCOON:524:1,2016-09-01T11:42:00Z,29.8672,-93.9310,0.0,2.9,12.0,3.5,'11111222,11111222,11111222' 
TCOON,ioos:station:TCOON:524:1,2016-09-01T11:48:00Z,29.8672,-93.9310,0.0,2.6,7.0,3.5,'11111222,11111222,11111222' 
TCOON,ioos:station:TCOON:524:1,2016-09-01T11:54:00Z,29.8672,-93.9310,0.0,2.8,7.0,3.2,'11111222,11111222,11111222' 
TCOON,ioos:station:TCOON:524:1,2016-09-01T12:00:00Z,29.8672,-93.9310,0.0,3.0,4.0,3.4,'11111222,11111222,11111222' 
TCOON,ioos:station:TCOON:524:1,2016-09-01T12:06:00Z,29.8672,-93.9310,0.0,3.3,6.0,4.2,'11111222,11111222,11111222' 
TCOON,ioos:station:TCOON:524:1,2016-09-01T12:12:00Z,29.8672,-93.9310,0.0,3.5,10.0,4.3,'11111222,11111222,11111222' 
TCOON,ioos:station:TCOON:524:1,2016-09-01T12:18:00Z,29.8672,-93.9310,0.0,3.5,10.0,4.3,'1111122,1111122,1111122' 
TCOON,ioos:station:TCOON:524:1,2016-09-01T12:24:00Z,29.8672,-93.9310,0.0,3.3,12.0,3.9,'11111222,11111222,11111222' 
TCOON,ioos:station:TCOON:524:1,2016-09-01T12:30:00Z,29.8672,-93.9310,0.0,3.3,14.0,4.3,'11111222,11111222,11111222' 
TCOON,ioos:station:TCOON:524:1,2016-09-01T12:36:00Z,29.8672,-93.9310,0.0,3.5,7.0,4.4,'11111222,11111222,11111222' 
TCOON,ioos:station:TCOON:524:1,2016-09-01T12:42:00Z,29.8672,-93.9310,0.0,3.0,4.0,3.9,'11111222,11111222,11111222' 
TCOON,ioos:station:TCOON:524:1,2016-09-01T12:48:00Z,29.8672,-93.9310,0.0,3.3,7.0,3.9,'11111222,11111222,11111222' 
TCOON,ioos:station:TCOON:524:1,2016-09-01T12:54:00Z,29.8672,-93.9310,0.0,3.0,8.0,3.8,'11111222,11111222,11111222' 
TCOON,ioos:station:TCOON:524:1,2016-09-01T13:00:00Z,29.8672,-93.9310,0.0,3.1,2.0,4.2,'11111222,11111222,11111222' 
TCOON,ioos:station:TCOON:524:1,2016-09-01T13:06:00Z,29.8672,-93.9310,0.0,3.0,14.0,3.8,'11111222,11111222,11111222' 
TCOON,ioos:station:TCOON:524:1,2016-09-01T13:12:00Z,29.8672,-93.9310,0.0,3.0,12.0,4.1,'11111222,11111222,11111222' 
TCOON,ioos:station:TCOON:524:1,2016-09-01T13:18:00Z,29.8672,-93.9310,0.0,3.0,12.0,4.1,'1111122,1111122,1111122' 
TCOON,ioos:station:TCOON:524:1,2016-09-01T13:24:00Z,29.8672,-93.9310,0.0,3.7,20.0,4.9,'11111222,11111222,11111222' 
TCOON,ioos:station:TCOON:524:1,2016-09-01T13:30:00Z,29.8672,-93.9310,0.0,3.7,22.0,4.4,'11111222,11111222,11111222' 
TCOON,ioos:station:TCOON:524:1,2016-09-01T13:36:00Z,29.8672,-93.9310,0.0,3.3,28.0,4.8,'11111222,11111222,11111222' 
TCOON,ioos:station:TCOON:524:1,2016-09-01T13:42:00Z,29.8672,-93.9310,0.0,3.3,30.0,5.4,'11111222,11111222,11111222' 
TCOON,ioos:station:TCOON:524:1,2016-09-01T13:48:00Z,29.8672,-93.9310,0.0,2.5,38.0,5.0,'11111222,11111222,11111222' 
TCOON,ioos:station:TCOON:524:1,2016-09-01T13:54:00Z,29.8672,-93.9310,0.0,2.7,33.0,4.6,'11111222,11111222,11111222' 
TCOON,ioos:station:TCOON:524:1,2016-09-01T14:00:00Z,29.8672,-93.9310,0.0,1.9,38.0,5.4,'11111222,11111222,11111222' 
TCOON,ioos:station:TCOON:524:1,2016-09-01T14:06:00Z,29.8672,-93.9310,0.0,3.3,35.0,4.8,'11111222,11111222,11111222' 
TCOON,ioos:station:TCOON:524:1,2016-09-01T14:12:00Z,29.8672,-93.9310,0.0,2.9,33.0,3.9,'11111222,11111222,11111222' 
TCOON,ioos:station:TCOON:524:1,2016-09-01T14:18:00Z,29.8672,-93.9310,0.0,3.7,26.0,4.6,'11111222,11111222,11111222' 
TCOON,ioos:station:TCOON:524:1,2016-09-01T14:24:00Z,29.8672,-93.9310,0.0,3.1,33.0,3.9,'11111222,11111222,11111222' 
TCOON,ioos:station:TCOON:524:1,2016-09-01T14:30:00Z,29.8672,-93.9310,0.0,1.6,45.0,3.8,'11111222,11111222,11111222' 
TCOON,ioos:station:TCOON:524:1,2016-09-01T14:36:00Z,29.8672,-93.9310,0.0,2.5,41.0,3.5,'11111222,11111222,11111222' 
TCOON,ioos:station:TCOON:524:1,2016-09-01T14:42:00Z,29.8672,-93.9310,0.0,3.8,21.0,4.4,'11111222,11111222,11111222' 
TCOON,ioos:station:TCOON:524:1,2016-09-01T14:48:00Z,29.8672,-93.9310,0.0,2.1,31.0,3.9,'11111222,11111222,11111222' 
TCOON,ioos:station:TCOON:524:1,2016-09-01T14:54:00Z,29.8672,-93.9310,0.0,2.1,37.0,3.2,'11111222,11111222,11111222' 
TCOON,ioos:station:TCOON:524:1,2016-09-01T15:00:00Z,29.8672,-93.9310,0.0,1.8,53.0,3.6,'11111222,11111222,11111222' 
TCOON,ioos:station:TCOON:524:1,2016-09-01T15:06:00Z,29.8672,-93.9310,0.0,1.8,55.0,3.6,'11111222,11111222,11111222' 
TCOON,ioos:station:TCOON:524:1,2016-09-01T15:12:00Z,29.8672,-93.9310,0.0,2.5,32.0,4.0,'11111222,11111222,11111222' 
TCOON,ioos:station:TCOON:524:1,2016-09-01T15:18:00Z,29.8672,-93.9310,0.0,2.1,28.0,3.5,'11111222,11111222,11111222' 
TCOON,ioos:station:TCOON:524:1,2016-09-01T15:24:00Z,29.8672,-93.9310,0.0,1.9,33.0,3.5,'11111222,11111222,11111222' 
TCOON,ioos:station:TCOON:524:1,2016-09-01T15:30:00Z,29.8672,-93.9310,0.0,1.6,45.0,3.5,'11111222,11111222,11111222' 
TCOON,ioos:station:TCOON:524:1,2016-09-01T15:36:00Z,29.8672,-93.9310,0.0,1.7,38.0,2.4,'11111222,11111222,11111222' 
TCOON,ioos:station:TCOON:524:1,2016-09-01T15:42:00Z,29.8672,-93.9310,0.0,1.7,49.0,3.0,'11111222,11111222,11111222' 
TCOON,ioos:station:TCOON:524:1,2016-09-01T15:48:00Z,29.8672,-93.9310,0.0,2.0,27.0,3.0,'11111222,11111222,11111222' 
TCOON,ioos:station:TCOON:524:1,2016-09-01T15:54:00Z,29.8672,-93.9310,0.0,1.9,54.0,3.1,'11111222,11111222,11111222' 
TCOON,ioos:station:TCOON:524:1,2016-09-01T16:00:00Z,29.8672,-93.9310,0.0,2.1,71.0,4.5,'11111222,11111222,11111222' 
TCOON,ioos:station:TCOON:524:1,2016-09-01T16:06:00Z,29.8672,-93.9310,0.0,2.3,96.0,3.6,'11111222,11111222,11111222' 
TCOON,ioos:station:TCOON:524:1,2016-09-01T16:12:00Z,29.8672,-93.9310,0.0,2.1,92.0,3.4,'11111222,11111222,11111222' 
TCOON,ioos:station:TCOON:524:1,2016-09-01T16:18:00Z,29.8672,-93.9310,0.0,2.5,112.0,3.8,'11111222,11111222,11111222' 
TCOON,ioos:station:TCOON:524:1,2016-09-01T16:24:00Z,29.8672,-93.9310,0.0,2.4,108.0,3.7,'11111222,11111222,11111222' 
TCOON,ioos:station:TCOON:524:1,2016-09-01T16:30:00Z,29.8672,-93.9310,0.0,2.4,117.0,3.7,'11111222,11111222,11111222' 
TCOON,ioos:station:TCOON:524:1,2016-09-01T16:36:00Z,29.8672,-93.9310,0.0,1.8,89.0,3.3,'11111222,11111222,11111222' 
TCOON,ioos:station:TCOON:524:1,2016-09-01T16:42:00Z,29.8672,-93.9310,0.0,1.6,85.0,3.5,'11111222,11111222,11111222' 
TCOON,ioos:station:TCOON:524:1,2016-09-01T16:48:00Z,29.8672,-93.9310,0.0,2.5,62.0,3.8,'11111222,11111222,11111222' 
TCOON,ioos:station:TCOON:524:1,2016-09-01T16:54:00Z,29.8672,-93.9310,0.0,2.3,81.0,3.2,'11111222,11111222,11111222' 
TCOON,ioos:station:TCOON:524:1,2016-09-01T17:00:00Z,29.8672,-93.9310,0.0,2.5,85.0,3.9,'11111222,11111222,11111222' 
TCOON,ioos:station:TCOON:524:1,2016-09-01T17:06:00Z,29.8672,-93.9310,0.0,1.4,80.0,4.1,'11111222,11111222,11111222' 
TCOON,ioos:station:TCOON:524:1,2016-09-01T17:12:00Z,29.8672,-93.9310,0.0,2.9,102.0,4.0,'11111222,11111222,11111222' 
TCOON,ioos:station:TCOON:524:1,2016-09-01T17:18:00Z,29.8672,-93.9310,0.0,2.8,100.0,3.5,'11111222,11111222,11111222' 
TCOON,ioos:station:TCOON:524:1,2016-09-01T17:24:00Z,29.8672,-93.9310,0.0,1.9,79.0,3.9,'11111222,11111222,11111222' 
TCOON,ioos:station:TCOON:524:1,2016-09-01T17:30:00Z,29.8672,-93.9310,0.0,2.6,78.0,4.0,'11111222,11111222,11111222' 
TCOON,ioos:station:TCOON:524:1,2016-09-01T17:36:00Z,29.8672,-93.9310,0.0,2.9,109.0,4.2,'11111222,11111222,11111222' 
TCOON,ioos:station:TCOON:524:1,2016-09-01T17:42:00Z,29.8672,-93.9310,0.0,3.2,108.0,4.4,'11111222,11111222,11111222' 
TCOON,ioos:station:TCOON:524:1,2016-09-01T17:48:00Z,29.8672,-93.9310,0.0,2.4,101.0,4.4,'11111222,11111222,11111222' 
TCOON,ioos:station:TCOON:524:1,2016-09-01T17:54:00Z,29.8672,-93.9310,0.0,3.0,105.0,4.6,'11111222,11111222,11111222' 
TCOON,ioos:station:TCOON:524:1,2016-09-01T18:00:00Z,29.8672,-93.9310,0.0,2.6,97.0,3.7,'11111222,11111222,11111222' 
TCOON,ioos:station:TCOON:524:1,2016-09-01T18:06:00Z,29.8672,-93.9310,0.0,3.3,94.0,4.5,'11111222,11111222,11111222' 
TCOON,ioos:station:TCOON:524:1,2016-09-01T18:12:00Z,29.8672,-93.9310,0.0,2.8,92.0,4.4,'11111222,11111222,11111222' 
TCOON,ioos:station:TCOON:524:1,2016-09-01T18:18:00Z,29.8672,-93.9310,0.0,2.8,93.0,4.1,'11111222,11111222,11111222' 
TCOON,ioos:station:TCOON:524:1,2016-09-01T18:24:00Z,29.8672,-93.9310,0.0,2.9,90.0,5.0,'11111222,11111222,11111222' 
TCOON,ioos:station:TCOON:524:1,2016-09-01T18:30:00Z,29.8672,-93.9310,0.0,3.4,92.0,4.8,'11111222,11111222,11111222' 
TCOON,ioos:station:TCOON:524:1,2016-09-01T18:36:00Z,29.8672,-93.9310,0.0,3.6,91.0,5.7,'11111222,11111222,11111222' 
TCOON,ioos:station:TCOON:524:1,2016-09-01T18:42:00Z,29.8672,-93.9310,0.0,2.2,75.0,4.5,'11111222,11111222,11111222' 
TCOON,ioos:station:TCOON:524:1,2016-09-01T18:48:00Z,29.8672,-93.9310,0.0,3.3,90.0,5.1,'11111222,11111222,11111222' 
TCOON,ioos:station:TCOON:524:1,2016-09-01T18:54:00Z,29.8672,-93.9310,0.0,3.1,102.0,4.6,'11111222,11111222,11111222' 
TCOON,ioos:station:TCOON:524:1,2016-09-01T19:00:00Z,29.8672,-93.9310,0.0,3.5,92.0,4.6,'11111222,11111222,11111222' 
TCOON,ioos:station:TCOON:524:1,2016-09-01T19:06:00Z,29.8672,-93.9310,0.0,2.8,103.0,5.0,'11111222,11111222,11111222' 
TCOON,ioos:station:TCOON:524:1,2016-09-01T19:12:00Z,29.8672,-93.9310,0.0,2.7,70.0,4.2,'11111222,11111222,11111222' 
TCOON,ioos:station:TCOON:524:1,2016-09-01T19:18:00Z,29.8672,-93.9310,0.0,3.0,81.0,4.0,'11111222,11111222,11111222' 
TCOON,ioos:station:TCOON:524:1,2016-09-01T19:24:00Z,29.8672,-93.9310,0.0,2.5,90.0,5.2,'11111222,11111222,11111222' 
TCOON,ioos:station:TCOON:524:1,2016-09-01T19:30:00Z,29.8672,-93.9310,0.0,2.0,63.0,4.1,'11111222,11111222,11111222' 
TCOON,ioos:station:TCOON:524:1,2016-09-01T19:36:00Z,29.8672,-93.9310,0.0,2.7,56.0,4.5,'11111222,11111222,11111222' 
TCOON,ioos:station:TCOON:524:1,2016-09-01T19:42:00Z,29.8672,-93.9310,0.0,3.1,103.0,5.0,'11111222,11111222,11111222' 
TCOON,ioos:station:TCOON:524:1,2016-09-01T19:48:00Z,29.8672,-93.9310,0.0,1.7,57.0,4.2,'11111222,11111222,11111222' 
TCOON,ioos:station:TCOON:524:1,2016-09-01T19:54:00Z,29.8672,-93.9310,0.0,2.9,33.0,3.9,'11111222,11111222,11111222' 
TCOON,ioos:station:TCOON:524:1,2016-09-01T20:00:00Z,29.8672,-93.9310,0.0,2.0,32.0,4.3,'11111222,11111222,11111222' 
TCOON,ioos:station:TCOON:524:1,2016-09-01T20:06:00Z,29.8672,-93.9310,0.0,1.2,34.0,2.8,'11111222,11111222,11111222' 
TCOON,ioos:station:TCOON:524:1,2016-09-01T20:12:00Z,29.8672,-93.9310,0.0,4.1,14.0,5.3,'11111222,11111222,11111222' 
TCOON,ioos:station:TCOON:524:1,2016-09-01T20:18:00Z,29.8672,-93.9310,0.0,4.1,14.0,5.3,'1111122,1111122,1111122' 
TCOON,ioos:station:TCOON:524:1,2016-09-01T20:24:00Z,29.8672,-93.9310,0.0,2.4,14.0,4.3,'11111222,11111222,11111222' 